sat.trackr.live / text

‹ back to catalog

SKYSAT-C9

NORAD 42989 · 2017-068C

PAYLOAD ACTIVE UNKNOWN

§ Identity

Operator
Country
US
Launch date
2017-10-31
Launch site
AFWTR
Launch vehicle
Mass (kg)
RCS (m²)

Purposes: earth_obs

External: N2YO · Heavens-Above · Gunter

§ Orbital elements

Epoch: 2026-05-25T03:01:14.569248Z

Period
93.45 min
Inclination
97.4392°
Eccentricity
0.0007997
Mean motion
15.40910005 rev/d
Perigee alt
438.0 km
Apogee alt
448.9 km
Semi-major
6,821.6 km
B*
2.9786e-4
RAAN
282.4786°
Arg perigee
210.9483°
Mean anomaly
149.1293°
Rev number
47,920

§ Raw data

SKYSAT-C91 42989U 17068C   26145.12586307  .00012176  00000+0  29786-3 0  99952 42989  97.4392 282.4786 0007997 210.9483 149.1293 15.40910005479200

JSON: /api/v1/satellites/42989 · /tle

For live sub-satellite position, see the globe view (requires WebGL).

§ Visibility from observer

Set your observer location to see the next 7 days of passes ≥ 10°. The values pass through the URL so the page stays shareable.

No JS? Fill the form by hand. The geolocation button needs JavaScript.